TimeCEST,TemperatureF,Dew PointF,Humidity,Sea Level PressureIn,VisibilityMPH,Wind Direction,Wind SpeedMPH,Gust SpeedMPH,PrecipitationIn,Events,Conditions,WindDirDegrees,DateUTC
12:20 AM,68.0,66.2,94,29.83,4.3,ENE,3.5,-,N/A,,Scattered Clouds,60,2012-10-09 22:20:00
12:50 AM,68.0,66.2,94,29.83,4.3,NE,5.8,-,N/A,,Scattered Clouds,50,2012-10-09 22:50:00
1:20 AM,68.0,66.2,94,29.83,4.3,ENE,4.6,-,N/A,,Scattered Clouds,60,2012-10-09 23:20:00
1:50 AM,68.0,66.2,94,29.83,4.3,ENE,3.5,-,N/A,,Scattered Clouds,70,2012-10-09 23:50:00
2:20 AM,68.0,66.2,94,29.83,4.3,ENE,4.6,-,N/A,,Scattered Clouds,70,2012-10-10 00:20:00
2:50 AM,68.0,66.2,94,29.80,4.3,NE,4.6,-,N/A,,Scattered Clouds,50,2012-10-10 00:50:00
3:20 AM,68.0,66.2,94,29.80,4.3,NE,2.3,-,N/A,,Scattered Clouds,40,2012-10-10 01:20:00
3:50 AM,68.0,66.2,94,29.80,4.3,WNW,2.3,-,N/A,,Scattered Clouds,300,2012-10-10 01:50:00
4:20 AM,68.0,66.2,94,29.80,4.3,Variable,2.3,-,N/A,,Mostly Cloudy,0,2012-10-10 02:20:00
4:50 AM,68.0,66.2,94,29.80,4.3,North,3.5,-,N/A,,Mostly Cloudy,350,2012-10-10 02:50:00
5:20 AM,68.0,64.4,88,29.80,4.3,NNE,3.5,-,N/A,,Mostly Cloudy,20,2012-10-10 03:20:00
5:50 AM,68.0,66.2,94,29.80,4.3,NNW,3.5,-,N/A,,Mostly Cloudy,340,2012-10-10 03:50:00
6:20 AM,68.0,64.4,88,29.80,5.0,NNE,3.5,-,N/A,,Scattered Clouds,20,2012-10-10 04:20:00
6:50 AM,66.2,64.4,94,29.80,5.0,NNW,3.5,-,N/A,,Scattered Clouds,340,2012-10-10 04:50:00
7:20 AM,68.0,64.4,88,29.80,5.0,North,3.5,-,N/A,,Scattered Clouds,350,2012-10-10 05:20:00
7:50 AM,68.0,64.4,88,29.83,6.2,NNW,3.5,-,N/A,,Scattered Clouds,340,2012-10-10 05:50:00
8:20 AM,68.0,66.2,94,29.83,6.2,Variable,2.3,-,N/A,,Partly Cloudy,0,2012-10-10 06:20:00
8:50 AM,69.8,64.4,83,29.83,6.2,NNE,4.6,-,N/A,,Partly Cloudy,30,2012-10-10 06:50:00
9:20 AM,71.6,64.4,78,29.83,6.2,NE,5.8,-,N/A,,Scattered Clouds,40,2012-10-10 07:20:00
9:50 AM,71.6,64.4,78,29.83,6.2,NNE,4.6,-,N/A,,Partly Cloudy,30,2012-10-10 07:50:00
10:20 AM,73.4,66.2,78,29.83,6.2,Variable,2.3,-,N/A,,Partly Cloudy,0,2012-10-10 08:20:00
10:50 AM,75.2,64.4,69,29.83,6.2,NNW,3.5,-,N/A,,Scattered Clouds,340,2012-10-10 08:50:00
11:20 AM,75.2,64.4,69,29.83,6.2,Variable,2.3,-,N/A,,Scattered Clouds,0,2012-10-10 09:20:00
11:50 AM,75.2,64.4,69,29.83,6.2,Variable,2.3,-,N/A,,Scattered Clouds,0,2012-10-10 09:50:00
12:20 PM,75.2,62.6,65,29.83,6.2,Variable,2.3,-,N/A,,Scattered Clouds,0,2012-10-10 10:20:00
12:50 PM,77.0,64.4,65,29.83,6.2,Variable,2.3,-,N/A,,Mostly Cloudy,0,2012-10-10 10:50:00
1:20 PM,75.2,64.4,69,29.83,6.2,Variable,3.5,-,N/A,,Mostly Cloudy,0,2012-10-10 11:20:00
1:50 PM,75.2,64.4,69,29.80,6.2,SSW,5.8,-,N/A,,Mostly Cloudy,200,2012-10-10 11:50:00
2:20 PM,77.0,66.2,69,29.80,6.2,South,8.1,-,N/A,,Mostly Cloudy,190,2012-10-10 12:20:00
2:50 PM,77.0,66.2,69,29.80,6.2,SSW,8.1,-,N/A,,Mostly Cloudy,210,2012-10-10 12:50:00
3:20 PM,77.0,64.4,65,29.80,6.2,SW,6.9,-,N/A,,Mostly Cloudy,230,2012-10-10 13:20:00
3:50 PM,75.2,66.2,73,29.80,6.2,SSW,8.1,-,N/A,,Scattered Clouds,200,2012-10-10 13:50:00
4:20 PM,75.2,66.2,73,29.80,6.2,SSW,6.9,-,N/A,,Scattered Clouds,200,2012-10-10 14:20:00
4:50 PM,75.2,66.2,73,29.80,6.2,SSW,6.9,-,N/A,,Scattered Clouds,210,2012-10-10 14:50:00
5:20 PM,75.2,66.2,73,29.80,6.2,SSW,5.8,-,N/A,,Scattered Clouds,210,2012-10-10 15:20:00
5:50 PM,75.2,64.4,69,29.80,6.2,West,6.9,-,N/A,,Scattered Clouds,260,2012-10-10 15:50:00
6:20 PM,73.4,64.4,73,29.80,6.2,West,8.1,-,N/A,,Partly Cloudy,260,2012-10-10 16:20:00
6:50 PM,71.6,64.4,78,29.80,-9999.0,West,5.8,-,N/A,,Clear,260,2012-10-10 16:50:00
7:20 PM,71.6,66.2,83,29.80,-9999.0,WSW,4.6,-,N/A,,Clear,250,2012-10-10 17:20:00
7:50 PM,71.6,66.2,83,29.80,-9999.0,Variable,2.3,-,N/A,,Clear,0,2012-10-10 17:50:00
8:20 PM,69.8,64.4,83,29.83,-9999.0,WSW,3.5,-,N/A,,Clear,240,2012-10-10 18:20:00
8:50 PM,69.8,64.4,83,29.83,-9999.0,WSW,3.5,-,N/A,,Clear,240,2012-10-10 18:50:00
9:20 PM,69.8,66.2,88,29.83,-9999.0,SSW,2.3,-,N/A,,Clear,210,2012-10-10 19:20:00
9:50 PM,68.0,64.4,88,29.83,6.2,Variable,1.2,-,N/A,,Partly Cloudy,0,2012-10-10 19:50:00
10:20 PM,69.8,66.2,88,29.83,6.2,Calm,Calm,-,N/A,,Partly Cloudy,0,2012-10-10 20:20:00
10:50 PM,68.0,64.4,88,29.83,6.2,Calm,Calm,-,N/A,,Partly Cloudy,0,2012-10-10 20:50:00
11:20 PM,68.0,64.4,88,29.83,6.2,ENE,2.3,-,N/A,,Partly Cloudy,60,2012-10-10 21:20:00
11:50 PM,68.0,64.4,88,29.83,6.2,East,2.3,-,N/A,,Partly Cloudy,100,2012-10-10 21:50:00